Change the Weather History Date:

Friday, March 28, 2014

  Actual Average Record
Temperature  
Mean Temperature 48 °F 45 °F  
Max Temperature 63 °F 55 °F 84 °F (1945)
Min Temperature 32 °F 35 °F 16 °F (1923)
Degree Days  
Heating Degree Days 17 20  
Month to date heating degree days 818 674  
Since 1 July heating degree days 4904 4488  
Cooling Degree Days 0 0  
Month to date cooling degree days 0 0  
Year to date cooling degree days 0 0  
Moisture  
Dew Point 41 °F    
Average Humidity 73    
Maximum Humidity 86    
Minimum Humidity 60    
Precipitation  
Precipitation 0.05 in 0.13 in 2.07 in (1932)
Month to date precipitation 1.04 3.68  
Year to date precipitation 8.70 9.15  
Sea Level Pressure  
Sea Level Pressure 30.06 in    
Wind  
Wind Speed 9 mph (SSW)    
Max Wind Speed 29 mph    
Max Gust Speed 38 mph    
Visibility 10 miles    
Events Rain    
T = Trace of Precipitation, MM = Missing Value Source: NWS Daily Summary

Daily Weather History Graph

Daily Weather History Graph

Search for Another Location

Airport or City:

Trip Planner

Search our weather history database for the weather conditions in past years. The results will help you decide how hot, cold, wet, or windy it might be!

Date:

Astronomy

Mar. 28, 2014 Rise Set
Actual Time 6:49 AM EDT 7:19 PM EDT
Civil Twilight 6:22 AM EDT 7:46 PM EDT
Nautical Twilight 5:50 AM EDT 8:19 PM EDT
Astronomical Twilight 5:17 AM EDT 8:52 PM EDT
Moon 5:19 AM EDT (3/28) 5:13 PM EDT (3/28)
Length of Visible Light 13h 24m
Length of Day
12h 30m
Waning Crescent, 6% of the Moon is Illuminated
Mar 28
Waning Crescent
Mar 30
New
Apr 7
First Quarter
Apr 15
Full
Apr 22
Last Quarter

Hourly Weather History & Observations

Time (EDT) Temp. Windchill Dew Point Humidity Pressure Visibility Wind Dir Wind Speed Gust Speed Precip Events Conditions
12:53 AM 33.1 °F 26.9 °F 21.0 °F 61% 30.23 in 10.0 mi South 6.9 mph - N/A   Clear
1:53 AM 33.1 °F 25.5 °F 21.9 °F 64% 30.20 in 10.0 mi South 9.2 mph - N/A   Clear
2:53 AM 32.0 °F 26.4 °F 24.1 °F 73% 30.16 in 10.0 mi South 5.8 mph - N/A   Clear
3:53 AM 33.1 °F 27.7 °F 25.0 °F 72% 30.14 in 10.0 mi South 5.8 mph - N/A   Scattered Clouds
4:53 AM 36.0 °F 29.6 °F 27.0 °F 70% 30.11 in 10.0 mi South 8.1 mph - N/A   Partly Cloudy
5:53 AM 37.0 °F 32.4 °F 28.0 °F 70% 30.11 in 10.0 mi South 5.8 mph - N/A   Mostly Cloudy
6:53 AM 37.9 °F - 28.9 °F 70% 30.11 in 10.0 mi Calm Calm - 0.00 in   Overcast
7:53 AM 41.0 °F 39.0 °F 32.0 °F 70% 30.09 in 10.0 mi SSE 3.5 mph - 0.00 in   Mostly Cloudy
8:53 AM 46.9 °F - 37.9 °F 71% 30.09 in 10.0 mi SSW 9.2 mph - N/A   Mostly Cloudy
9:53 AM 50.0 °F - 41.0 °F 71% 30.09 in 10.0 mi SW 9.2 mph - 0.00 in Rain Light Rain
10:53 AM 48.9 °F - 45.0 °F 86% 30.07 in 8.0 mi SSW 10.4 mph - 0.03 in Rain Light Rain
11:53 AM 51.1 °F - 46.9 °F 86% 30.06 in 10.0 mi SW 9.2 mph - 0.02 in Rain Light Rain
12:26 PM 54.0 °F - 46.9 °F 77% 30.05 in 10.0 mi SSW 15.0 mph 27.6 mph 0.00 in   Overcast
12:53 PM 55.0 °F - 48.0 °F 77% 30.02 in 10.0 mi SW 15.0 mph 29.9 mph 0.00 in   Overcast
1:53 PM 57.0 °F - 46.0 °F 67% 30.00 in 10.0 mi SW 17.3 mph 32.2 mph 0.00 in   Overcast
2:53 PM 57.9 °F - 48.9 °F 72% 29.97 in 10.0 mi SW 15.0 mph 23.0 mph 0.00 in Rain Light Rain
3:53 PM 59.0 °F - 48.9 °F 69% 29.97 in 10.0 mi SW 18.4 mph 35.7 mph 0.00 in   Overcast
4:43 PM 61.0 °F - 48.9 °F 64% 29.98 in 10.0 mi SW 15.0 mph - N/A   Overcast
4:53 PM 62.1 °F - 48.9 °F 62% 29.97 in 10.0 mi SW 15.0 mph - N/A   Overcast
5:53 PM 63.0 °F - 48.9 °F 60% 29.97 in 10.0 mi SW 15.0 mph 23.0 mph N/A   Overcast
6:53 PM 62.1 °F - 48.0 °F 60% 29.98 in 10.0 mi SW 11.5 mph - N/A   Overcast
7:53 PM 61.0 °F - 48.0 °F 62% 29.99 in 10.0 mi SW 9.2 mph - N/A   Partly Cloudy
8:53 PM 60.1 °F - 48.0 °F 64% 30.01 in 10.0 mi SW 8.1 mph - N/A   Mostly Cloudy
9:53 PM 61.0 °F - 48.9 °F 64% 30.02 in 10.0 mi SW 6.9 mph - N/A   Overcast
10:53 PM 60.1 °F - 48.9 °F 67% 30.05 in 10.0 mi WNW 5.8 mph - N/A   Overcast
11:53 PM 57.9 °F - 48.9 °F 72% 30.08 in 10.0 mi SSW 4.6 mph - N/A   Overcast